Regional Weather Roundup
Issued by NWS

Home | Current Version | Previous Version | Graphics & Text | Print | Product List | Glossary On
Versions: 1 2 3 4 5 6 7 8 9 10 11 12 13 14 15 16 17 18 19 20 21 22 23 24 25 26 27 28 29 30 31 32 33 34 35 36 37 38 39 40 41 42 43 44 45 46 47 48 49 50
000
ASUS45 KBOU 170210
RWRCO

WEATHER ROUNDUP FOR COLORADO
NATIONAL WEATHER SERVICE DENVER/BOULDER CO
700 PM MST THU NOV 16 2017

NOTE: "FAIR" INDICATES FEW OR NO CLOUDS BELOW 12000 FEET WITH NO
SIGNIFICANT WEATHER AND/OR OBSTRUCTIONS TO VISIBILITY.

COZ001>005-013-030-031-170300-
...NORTHWEST COLORADO...

CITY           SKY/WX    TMP DP  RH WIND       PRES   REMARKS
CRAIG          FAIR      52  25  35 SW12      29.86S
HAYDEN         FAIR      50  25  37 SW7       29.89F
MEEKER         FAIR      52  26  36 SW13G21   29.88S
RABBIT EARS PA CLOUDY    36  23  60 SW6G20    30.04S
STEAMBOAT SPGS FAIR      49  24  38 CALM      29.89S
WALDEN         FAIR      41  23  48 SW17      29.91S
$$

COZ006>008-011-170300-
...WEST CENTRAL VALLEYS...

CITY           SKY/WX    TMP DP  RH WIND       PRES   REMARKS
GRAND JUNCTION FAIR      52  24  33 SE3       29.89F
MONTROSE       FAIR      58  29  33 SE8       29.97F
EAGLE          FAIR      52  30  43 W17G25    29.96R
RIFLE          FAIR      55  26  32 W9        29.91S
DELTA          FAIR      56  30  36 N9        29.95F
NUCLA          CLOUDY    59  21  23 SE9       30.03S
$$

COZ017>023-064>068-170300-
...SOUTHWEST COLORADO...

CITY           SKY/WX    TMP DP  RH WIND       PRES   REMARKS
DURANGO        CLOUDY    49  22  34 NE6       30.11S
CORTEZ         CLOUDY    49  26  41 E3        30.06S
PAGOSA SPRINGS MOCLDY    49  19  30 CALM      30.17R
TELLURIDE      CLOUDY    47  22  37 W8        30.16F
WOLF CREEK PAS CLOUDY    30  19  64 S26G43    30.29R WCI  16
$$

COZ009-010-012-014-032>034-037-058>063-170300-
...CENTRAL COLORADO...

CITY           SKY/WX    TMP DP  RH WIND       PRES   REMARKS
ASPEN          CLOUDY    47  29  49 CALM      30.00S
BUENA VISTA    MOCLDY    44  32  62 S7        30.05S
COPPER MTN     CLOUDY    36  25  64 SW17      30.16S
BERTHOUD PASS  FAIR      28  18  64 W26G35    30.11F WCI  13
COTTONWOOD PAS LGT RAIN  43  36  75 SW6G18    30.12S
GUNNISON       LGT RAIN  42  36  79 N6        30.08F
KREMMLING      FAIR      55  27  33 SW16G28   29.96S
LEADVILLE      FAIR      37  22  54 S8        30.07
MONARCH PASS   CLOUDY    30  30 100 SW25G32   30.29F WCI  16
SALIDA         CLOUDY    47  38  70 W7        30.13F
SUNLIGHT       FAIR      32  25  74 SW21G35   30.11S WCI  20
WILKERSON PASS MOCLDY    34  21  60 SW15G24   30.15S WCI  24
$$

COZ069>075-170300-
...SAN LUIS VALLEY/SANGRE DE CRISTO MOUNTAINS...

CITY           SKY/WX    TMP DP  RH WIND       PRES   REMARKS
ALAMOSA        FAIR      52  24  33 VRB3      30.11R
DEL NORTE      CLOUDY    47  23  38 W9        30.10F
LA VETA PASS   MOCLDY    41  23  48 S23G44      N/A
SAGUACHE       MOCLDY    43  28  56 NW8       30.09R
$$

COZ035-036-038>040-170300-
...NORTHERN COLORADO FRONT RANGE...

CITY           SKY/WX    TMP DP  RH WIND       PRES   REMARKS
DENVER INTL AP MOCLDY    57  19  22 SW10      29.78F
DMNS CITY PARK   N/A     63  17  17 SW7G13    29.78S
AURORA         MOCLDY    58  22  24 SW9       29.80F
FRONT RANGE AP MOCLDY    59  19  21 VRB7      29.80F
ERIE MUNI ARPT FAIR      48  25  41 CALM      29.82F
BOULDER MUN AP FAIR      63  23  22 SW13G20   29.76S
CENTENNIAL     MOCLDY    60  22  23 SW16      29.81F
BROOMFIELD     MOCLDY    63  19  19 CALM      29.80F
FORT COLLINS   FAIR      62  28  27 SW17G23   29.75S
LONGMONT       FAIR      63  23  21 SE3       29.78S
$$

COZ041-046-047-076>085-087-088-170300-
...PIKES PEAK/PALMER DIVIDE AND SOUTHERN FOOTHILLS...

CITY           SKY/WX    TMP DP  RH WIND       PRES   REMARKS
COLO. SPRINGS  FAIR      61  24  24 W20       29.90F
A. F. ACADEMY  FAIR      57  20  23 SW12G23   29.91R
SCHRIEVER AFB  FAIR      59  21  22 W23G31    29.89S
CHEYENNE MTN   FAIR      57  22  25 E9G20     29.85F
ELLICOTT         N/A    N/A N/A N/A CALM      29.89R
FALCON         FAIR      57  18  21 W18G24    29.91F
FORT CARSON    FAIR      64  24  22 SW29G41   29.85F
LIMON          FAIR      61  19  19 SW12      29.81S
MONUMENT HILL  FAIR      54  21  28 W17G26    29.92F
CANON CITY     FAIR      59  30  33 W5        29.89R
WALSENBURG     FAIR      63  27  25 SW25G33   29.92F
TRINIDAD       FAIR      64  29  26 W18G30    29.93R
$$

COZ042>045-048>051-090-091-170300-
...NORTHEAST COLORADO...

CITY           SKY/WX    TMP DP  RH WIND       PRES   REMARKS
GREELEY ARPT   FAIR      63  26  24 W12       29.75F
AKRON          FAIR      55  18  23 SW7       29.72F
BURLINGTON     FAIR      53  31  42 S14       29.76F
WRAY           NOT AVBL
YUMA           FAIR      46  25  42 S7        29.71S
STERLING       FAIR      52  28  40 S10       29.70S
HOLYOKE        FAIR      46  30  53 S7        29.70S
FORT MORGAN    FAIR      58  22  24 W8        29.73F
$$

COZ086-089-092>099-170300-
...SOUTHEAST COLORADO...

CITY           SKY/WX    TMP DP  RH WIND       PRES   REMARKS
PUEBLO         FAIR      57  24  28 NW3       29.84R
LA JUNTA       FAIR      61  25  25 SW15      29.79S
LAMAR          FAIR      58  26  29 SW10      29.75F
SPRINGFIELD      N/A     50  29  44 SW12      29.84S
$$



USA.gov is the U.S. government's official web portal to all federal, state and local government web resources and services.